Glidden, IA

2:29 PM CST on February 26, 2017 (GMT -0600)
Neu

Weather History for KCIN - January, 2014

Change the Weather History Date:

Wednesday, January 15, 2014

  Actual Average Record
Temperature  
Mean Temperature 20 °F -  
Max Temperature 33 °F 29 °F 63 °F (1990)
Min Temperature 6 °F 8 °F -21 °F (1972)
Degree Days  
Heating Degree Days 46    
Moisture  
Dew Point 10 °F    
Average Humidity 63    
Maximum Humidity 92    
Minimum Humidity 40    
Precipitation  
Precipitation 0.00 in - - ()
Sea Level Pressure  
Sea Level Pressure 29.98 in    
Wind  
Wind Speed 16 mph (WSW)    
Max Wind Speed 31 mph    
Max Gust Speed 34 mph    
Visibility 10 miles    
Events Snow    
Averages and records for this station are not official NWS values.
T = Trace of Precipitation, MM = Missing Value Source: NWS Daily Summary

Daily Weather History Graph

Daily Weather History Graph

Search for Another Location

Airport or City:

Trip Planner

Search our weather history database for the weather conditions in past years. The results will help you decide how hot, cold, wet, or windy it might be!

Date:

Astronomy

Jan. 15, 2014 Rise Set
Actual Time 7:44 AM CST 5:12 PM CST
Civil Twilight 7:13 AM CST 5:43 PM CST
Nautical Twilight 6:39 AM CST 6:18 PM CST
Astronomical Twilight 6:05 AM CST 6:51 PM CST
Moon 5:12 PM CST (1/15) 7:00 AM CST (1/15)
Length of Visible Light 10h 29m
Length of Day
9h 28m
Full, 100% of the Moon is Illuminated
Jan 15
Full
Jan 15
Full
Jan 23
Last Quarter
Jan 30
New
Feb 6
First Quarter

Hourly Weather History & Observations

Time (CST) Temp. Windchill Dew Point Humidity Pressure Visibility Wind Dir Wind Speed Gust Speed Precip Events Conditions
12:15 AM 17.6 °F 3.7 °F 8.6 °F 68% 30.16 in 10.0 mi North 13.8 mph - N/A   Overcast
12:35 AM 17.6 °F 3.7 °F 8.6 °F 68% 30.16 in 10.0 mi NNW 13.8 mph - N/A   Overcast
12:55 AM 17.6 °F -0.3 °F 6.8 °F 63% 30.16 in 10.0 mi NNW 24.2 mph 29.9 mph N/A   Overcast
1:15 AM 17.6 °F 0.1 °F 6.8 °F 63% 30.16 in 10.0 mi NNW 23.0 mph 31.1 mph N/A   Overcast
1:35 AM 17.6 °F 1.7 °F 6.8 °F 63% 30.15 in 10.0 mi NNW 18.4 mph 28.8 mph N/A   Overcast
1:55 AM 15.8 °F -1.9 °F 6.8 °F 68% 30.15 in 10.0 mi North 21.9 mph 27.6 mph N/A   Overcast
2:15 AM 15.8 °F -0.6 °F 6.8 °F 68% 30.16 in 10.0 mi NNW 18.4 mph 25.3 mph N/A   Overcast
2:35 AM 15.8 °F -0.6 °F 6.8 °F 68% 30.17 in 10.0 mi North 18.4 mph 25.3 mph N/A   Overcast
2:55 AM 15.8 °F -0.2 °F 5.0 °F 62% 30.17 in 10.0 mi NNW 17.3 mph 24.2 mph N/A   Overcast
3:15 AM 15.8 °F 0.9 °F 6.8 °F 68% 30.17 in 10.0 mi North 15.0 mph 23.0 mph N/A Snow Light Snow
3:35 AM 15.8 °F 0.3 °F 6.8 °F 68% 30.18 in 10.0 mi North 16.1 mph - N/A   Overcast
3:55 AM 15.8 °F 1.4 °F 6.8 °F 68% 30.17 in 10.0 mi North 13.8 mph - N/A   Overcast
4:15 AM 15.8 °F 1.4 °F 6.8 °F 68% 30.17 in 10.0 mi NNW 13.8 mph - N/A   Overcast
4:35 AM 15.8 °F 1.4 °F 6.8 °F 68% 30.16 in 10.0 mi NNW 13.8 mph - N/A   Overcast
4:55 AM 15.8 °F 0.9 °F 6.8 °F 68% 30.16 in 10.0 mi NNW 15.0 mph - N/A   Overcast
5:15 AM 14.0 °F 1.2 °F 8.6 °F 79% 30.17 in 10.0 mi NW 10.4 mph - N/A Snow Light Snow
5:35 AM 14.0 °F 2.9 °F 8.6 °F 79% 30.17 in 10.0 mi NW 8.1 mph - N/A   Overcast
5:55 AM 14.0 °F 0.5 °F 8.6 °F 79% 30.17 in 10.0 mi NW 11.5 mph - N/A   Overcast
6:15 AM 14.0 °F 2.9 °F 8.6 °F 79% 30.16 in 10.0 mi NW 8.1 mph - N/A Snow Light Snow
6:35 AM 14.0 °F 2.0 °F 6.8 °F 73% 30.16 in 10.0 mi NW 9.2 mph - N/A   Overcast
6:55 AM 12.2 °F 1.7 °F 6.8 °F 79% 30.16 in 10.0 mi NW 6.9 mph - N/A   Overcast
7:15 AM 10.4 °F -0.4 °F 5.0 °F 79% 30.16 in 10.0 mi NNW 6.9 mph - N/A   Mostly Cloudy
7:35 AM 8.6 °F 2.0 °F 3.2 °F 79% 30.16 in 10.0 mi WSW 3.5 mph - N/A   Partly Cloudy
7:55 AM 6.8 °F -3.5 °F 5.0 °F 92% 30.15 in 9.0 mi West 5.8 mph - N/A   Clear
8:15 AM 6.8 °F -3.5 °F 5.0 °F 92% 30.15 in 9.0 mi West 5.8 mph - N/A   Clear
8:35 AM 8.6 °F -1.3 °F 5.0 °F 85% 30.14 in 10.0 mi West 5.8 mph - N/A   Clear
8:55 AM 10.4 °F 0.8 °F 5.0 °F 79% 30.14 in 10.0 mi West 5.8 mph - N/A   Clear
9:15 AM 12.2 °F -1.0 °F 6.8 °F 79% 30.16 in 10.0 mi West 10.4 mph - N/A   Clear
9:35 AM 12.2 °F -0.2 °F 6.8 °F 79% 30.16 in 10.0 mi West 9.2 mph - N/A   Clear
9:55 AM 14.0 °F 2.9 °F 8.6 °F 79% 30.15 in 10.0 mi WSW 8.1 mph - N/A   Clear
10:15 AM 14.0 °F 1.2 °F 8.6 °F 79% 30.16 in 10.0 mi WSW 10.4 mph - N/A   Clear
10:35 AM 15.8 °F 3.4 °F 6.8 °F 68% 30.15 in 10.0 mi WSW 10.4 mph - N/A   Partly Cloudy
10:55 AM 15.8 °F 3.4 °F 8.6 °F 73% 30.13 in 10.0 mi SW 10.4 mph - N/A   Partly Cloudy
11:15 AM 15.8 °F 5.1 °F 6.8 °F 68% 30.10 in 10.0 mi SW 8.1 mph - N/A   Clear
11:35 AM 17.6 °F 8.2 °F 6.8 °F 63% 30.07 in 9.0 mi SSW 6.9 mph - N/A   Clear
11:55 AM 19.4 °F 9.5 °F 5.0 °F 54% 30.06 in 10.0 mi SSW 8.1 mph - N/A   Clear
12:15 PM 19.4 °F 7.2 °F 5.0 °F 54% 30.05 in 10.0 mi SW 11.5 mph - N/A   Clear
12:35 PM 21.2 °F 7.8 °F 5.0 °F 50% 30.03 in 10.0 mi SSW 15.0 mph - N/A   Clear
12:55 PM 23.0 °F 10.6 °F 5.0 °F 46% 30.00 in 10.0 mi SW 13.8 mph 20.7 mph N/A   Scattered Clouds
1:15 PM 23.0 °F 10.6 °F 5.0 °F 46% 29.99 in 10.0 mi SW 13.8 mph - N/A   Overcast
1:35 PM 23.0 °F 10.6 °F 3.2 °F 43% 29.98 in 10.0 mi SW 13.8 mph - N/A   Overcast
1:55 PM 24.8 °F 12.4 °F 3.2 °F 40% 29.94 in 10.0 mi SSW 15.0 mph 20.7 mph N/A   Overcast
2:15 PM 24.8 °F 12.4 °F 3.2 °F 40% 29.94 in 10.0 mi SSW 15.0 mph - N/A   Mostly Cloudy
2:35 PM 24.8 °F 11.9 °F 5.0 °F 43% 29.91 in 10.0 mi SSW 16.1 mph - N/A   Mostly Cloudy
2:55 PM 26.6 °F 13.1 °F 5.0 °F 40% 29.91 in 10.0 mi SSW 19.6 mph - N/A   Overcast
3:15 PM 26.6 °F 14.3 °F 6.8 °F 43% 29.89 in 10.0 mi SSW 16.1 mph - N/A   Mostly Cloudy
3:35 PM 26.6 °F 13.4 °F 6.8 °F 43% 29.86 in 10.0 mi South 18.4 mph - N/A   Partly Cloudy
3:55 PM 26.6 °F 13.1 °F 8.6 °F 47% 29.86 in 10.0 mi South 19.6 mph - N/A   Partly Cloudy
4:15 PM 26.6 °F 12.7 °F 10.4 °F 51% 29.85 in 10.0 mi South 20.7 mph - N/A   Mostly Cloudy
4:35 PM 28.4 °F 15.8 °F 10.4 °F 47% 29.83 in 10.0 mi South 18.4 mph - N/A   Mostly Cloudy
4:55 PM 26.6 °F 13.4 °F 10.4 °F 51% 29.83 in 10.0 mi South 18.4 mph - N/A   Overcast
5:15 PM 28.4 °F 15.4 °F 10.4 °F 47% 29.83 in 10.0 mi South 19.6 mph - N/A   Overcast
5:35 PM 28.4 °F 15.4 °F 12.2 °F 51% 29.80 in 10.0 mi South 19.6 mph 26.5 mph N/A   Overcast
5:55 PM 28.4 °F 14.4 °F 12.2 °F 51% 29.79 in 10.0 mi SSW 23.0 mph 31.1 mph N/A   Overcast
6:15 PM 28.4 °F 15.1 °F 14.0 °F 55% 29.78 in 10.0 mi SSW 20.7 mph 28.8 mph N/A   Overcast
6:35 PM 28.4 °F 14.7 °F 14.0 °F 55% 29.76 in 10.0 mi SSW 21.9 mph 33.4 mph N/A   Overcast
6:55 PM 28.4 °F 14.4 °F 14.0 °F 55% 29.74 in 10.0 mi SSW 23.0 mph 32.2 mph N/A   Overcast
7:15 PM 28.4 °F 12.5 °F 15.8 °F 59% 29.72 in 10.0 mi SSW 31.1 mph - N/A   Overcast
7:35 PM 28.4 °F 13.5 °F 15.8 °F 59% 29.71 in 10.0 mi SSW 26.5 mph 33.4 mph N/A   Overcast
7:55 PM 28.4 °F 13.0 °F 15.8 °F 59% 29.72 in 10.0 mi SSW 28.8 mph 34.5 mph N/A   Overcast
8:15 PM 30.2 °F 16.8 °F 17.6 °F 60% 29.71 in 10.0 mi SSW 23.0 mph 31.1 mph N/A   Overcast
8:35 PM 30.2 °F 16.5 °F 17.6 °F 60% 29.69 in 10.0 mi SSW 24.2 mph 32.2 mph N/A   Partly Cloudy
8:55 PM 30.2 °F 16.5 °F 17.6 °F 60% 29.69 in 10.0 mi SW 24.2 mph 31.1 mph N/A   Clear
9:15 PM 30.2 °F 16.2 °F 19.4 °F 64% 29.69 in 10.0 mi SW 25.3 mph 32.2 mph N/A   Clear
9:35 PM 30.2 °F 15.9 °F 19.4 °F 64% 29.69 in 10.0 mi SW 26.5 mph - N/A   Clear
9:55 PM 30.2 °F 15.7 °F 19.4 °F 64% 29.68 in 10.0 mi SW 27.6 mph - N/A   Clear
10:15 PM 30.2 °F 15.9 °F 19.4 °F 64% 29.67 in 10.0 mi SW 26.5 mph 32.2 mph N/A   Partly Cloudy
10:35 PM 30.2 °F 16.5 °F 19.4 °F 64% 29.67 in 10.0 mi SW 24.2 mph - N/A   Mostly Cloudy
10:55 PM 30.2 °F 16.8 °F 21.2 °F 69% 29.66 in 10.0 mi SW 23.0 mph 29.9 mph N/A   Mostly Cloudy
11:15 PM 32.0 °F 18.1 °F 21.2 °F 64% 29.64 in 10.0 mi SW 27.6 mph - N/A   Overcast
11:35 PM 33.8 °F 21.3 °F 23.0 °F 65% 29.63 in 10.0 mi SW 24.2 mph - N/A   Overcast
11:55 PM 33.8 °F 21.6 °F 23.0 °F 65% 29.62 in 10.0 mi SW 23.0 mph 32.2 mph N/A   Overcast